When you browse on this site, cookies collect data to enhance your experience and personalize the content and advertising you see.
Visit our Privacy Policy to learn more. By continuing to use the site, you agree to this use of cookies and data.
  • In Hungary
  • List of Countries
  • For 7 days
  • Water Temperature
  • Satellite Maps
  • Weather Map
  • News
  • Weather Widgets
  • user-avatar
    Login

    Hourly Weather Diksmuide

    Today, 23 February, Saturday

    Time Temperature Precipitation Wind Pressure Humidity
    00:00 +7°C° 0 mm 4 mps 777 mmHg 92%
    01:00 +6°C° 0 mm 4 mps 776 mmHg 92%
    02:00 +7°C° 0 mm 3 mps 776 mmHg 93%
    03:00 +7°C° 0 mm 3 mps 776 mmHg 93%
    04:00 +7°C° 0 mm 3 mps 776 mmHg 92%
    05:00 +7°C° 0 mm 3 mps 776 mmHg 92%
    06:00 +5°C° 0 mm 3 mps 776 mmHg 91%
    07:00 +7°C° 0 mm 3 mps 776 mmHg 87%
    08:00 +7°C° 0 mm 4 mps 776 mmHg 83%
    09:00 +8°C° 0 mm 4 mps 776 mmHg 79%
    10:00 +10°C° 0 mm 3 mps 776 mmHg 73%
    11:00 +11°C° 0 mm 3 mps 776 mmHg 67%
    12:00 +13°C° 0 mm 3 mps 776 mmHg 61%
    13:00 +14°C° 0 mm 2 mps 776 mmHg 59%
    14:00 +15°C° 0 mm 2 mps 775 mmHg 57%
    15:00 +15°C° 0 mm 2 mps 775 mmHg 55%
    16:00 +14°C° 0 mm 2 mps 775 mmHg 59%
    17:00 +12°C° 0 mm 2 mps 775 mmHg 64%
    18:00 +10°C° 0 mm 3 mps 776 mmHg 69%
    19:00 +9°C° 0 mm 3 mps 776 mmHg 69%
    20:00 +9°C° 0 mm 3 mps 776 mmHg 69%
    21:00 +8°C° 0 mm 3 mps 776 mmHg 69%
    22:00 +8°C° 0 mm 3 mps 776 mmHg 67%
    23:00 +7°C° 0 mm 3 mps 776 mmHg 64%

    Tomorrow, 24 February, Sunday

    Time Temperature Precipitation Wind Pressure Humidity
    00:00 +7°C° 0 mm 2 mps 776 mmHg 61%
    01:00 +6°C° 0 mm 2 mps 776 mmHg 59%
    02:00 +6°C° 0 mm 2 mps 776 mmHg 56%
    03:00 +5°C° 0 mm 2 mps 776 mmHg 54%
    04:00 +5°C° 0 mm 2 mps 776 mmHg 52%
    05:00 +5°C° 0 mm 2 mps 776 mmHg 50%
    06:00 +5°C° 0 mm 1 mps 777 mmHg 48%
    07:00 +5°C° 0 mm 2 mps 777 mmHg 47%
    08:00 +6°C° 0 mm 2 mps 777 mmHg 45%
    09:00 +7°C° 0 mm 2 mps 777 mmHg 44%
    10:00 +9°C° 0 mm 2 mps 777 mmHg 41%
    11:00 +10°C° 0 mm 3 mps 777 mmHg 38%
    12:00 +12°C° 0 mm 3 mps 777 mmHg 35%
    13:00 +12°C° 0 mm 3 mps 777 mmHg 36%
    14:00 +13°C° 0 mm 3 mps 777 mmHg 38%
    15:00 +14°C° 0 mm 2 mps 777 mmHg 39%
    16:00 +13°C° 0 mm 2 mps 777 mmHg 43%
    17:00 +11°C° 0 mm 3 mps 777 mmHg 47%
    18:00 +10°C° 0 mm 3 mps 777 mmHg 51%
    19:00 +9°C° 0 mm 3 mps 777 mmHg 53%
    20:00 +9°C° 0 mm 3 mps 777 mmHg 55%
    21:00 +8°C° 0 mm 3 mps 778 mmHg 57%
    22:00 +8°C° 0 mm 3 mps 778 mmHg 59%
    23:00 +7°C° 0 mm 2 mps 778 mmHg 61%

    Day after tomorrow, 25 February, Monday

    Time Temperature Precipitation Wind Pressure Humidity
    00:00 +7°C° 0 mm 2 mps 777 mmHg 62%
    01:00 +7°C° 0 mm 2 mps 778 mmHg 62%
    02:00 +6°C° 0 mm 2 mps 778 mmHg 62%
    03:00 +7°C° 0 mm 1 mps 778 mmHg 61%
    04:00 +7°C° 0 mm 1 mps 778 mmHg 60%
    05:00 +7°C° 0 mm 1 mps 778 mmHg 60%
    06:00 +6°C° 0 mm 1 mps 778 mmHg 59%
    07:00 +6°C° 0 mm 2 mps 778 mmHg 57%
    08:00 +7°C° 0 mm 2 mps 778 mmHg 56%
    09:00 +8°C° 0 mm 3 mps 778 mmHg 54%
    10:00 +10°C° 0 mm 3 mps 778 mmHg 51%
    11:00 +13°C° 0 mm 2 mps 778 mmHg 47%
    12:00 +14°C° 0 mm 2 mps 778 mmHg 44%
    13:00 +15°C° 0 mm 2 mps 778 mmHg 44%
    14:00 +16°C° 0 mm 1 mps 777 mmHg 44%
    15:00 +16°C° 0 mm 1 mps 777 mmHg 44%
    16:00 +15°C° 0 mm 1 mps 777 mmHg 49%
    17:00 +13°C° 0 mm 2 mps 777 mmHg 53%
    18:00 +12°C° 0 mm 2 mps 777 mmHg 57%
    19:00 +10°C° 0 mm 2 mps 777 mmHg 59%
    20:00 +10°C° 0 mm 2 mps 777 mmHg 61%
    21:00 +9°C° 0 mm 3 mps 777 mmHg 63%
    22:00 +9°C° 0 mm 2 mps 777 mmHg 66%
    23:00 +9°C° 0 mm 2 mps 777 mmHg 69%

    26 February, Tuesday

    Time Temperature Precipitation Wind Pressure Humidity
    00:00 +8°C° 0 mm 2 mps 777 mmHg 72%
    01:00 +8°C° 0 mm 2 mps 777 mmHg 74%
    02:00 +8°C° 0 mm 2 mps 776 mmHg 76%
    03:00 +8°C° 0 mm 2 mps 776 mmHg 78%
    04:00 +8°C° 0 mm 1 mps 776 mmHg 78%
    05:00 +8°C° 0 mm 1 mps 776 mmHg 79%
    06:00 +8°C° 0 mm 1 mps 776 mmHg 80%
    07:00 +9°C° 0 mm 1 mps 776 mmHg 76%
    08:00 +10°C° 0 mm 1 mps 776 mmHg 72%
    09:00 +11°C° 0 mm 1 mps 776 mmHg 68%
    10:00 +13°C° 0 mm 1 mps 776 mmHg 62%
    11:00 +14°C° 0 mm 1 mps 776 mmHg 57%
    12:00 +16°C° 0 mm 2 mps 776 mmHg 52%
    13:00 +16°C° 0 mm 2 mps 775 mmHg 52%
    14:00 +17°C° 0 mm 2 mps 775 mmHg 51%
    15:00 +17°C° 0 mm 2 mps 775 mmHg 50%
    16:00 +16°C° 0 mm 2 mps 774 mmHg 56%
    17:00 +14°C° 0 mm 2 mps 774 mmHg 61%
    18:00 +12°C° 0 mm 2 mps 774 mmHg 67%
    19:00 +12°C° 0 mm 2 mps 774 mmHg 68%
    20:00 +10°C° 0 mm 3 mps 774 mmHg 70%
    21:00 +10°C° 0 mm 3 mps 774 mmHg 72%
    22:00 +9°C° 0 mm 3 mps 774 mmHg 73%
    23:00 +9°C° 0 mm 3 mps 774 mmHg 74%

    27 February, Wednesday

    Time Temperature Precipitation Wind Pressure Humidity
    00:00 +9°C° 0 mm 3 mps 773 mmHg 75%
    01:00 +8°C° 0 mm 2 mps 773 mmHg 77%
    02:00 +8°C° 0 mm 2 mps 773 mmHg 79%
    03:00 +8°C° 0 mm 2 mps 772 mmHg 80%
    04:00 +7°C° 0 mm 2 mps 772 mmHg 80%
    05:00 +7°C° 0 mm 2 mps 772 mmHg 81%
    06:00 +7°C° 0 mm 2 mps 771 mmHg 81%
    07:00 +8°C° 0 mm 2 mps 771 mmHg 77%
    08:00 +9°C° 0 mm 3 mps 771 mmHg 73%
    09:00 +10°C° 0 mm 3 mps 771 mmHg 68%
    10:00 +11°C° 0 mm 3 mps 770 mmHg 64%
    11:00 +13°C° 0 mm 3 mps 770 mmHg 59%
    12:00 +14°C° 0 mm 3 mps 770 mmHg 55%
    13:00 +16°C° 0 mm 3 mps 769 mmHg 54%
    14:00 +16°C° 0 mm 3 mps 768 mmHg 54%
    15:00 +16°C° 0 mm 2 mps 768 mmHg 54%
    16:00 +15°C° 0 mm 2 mps 768 mmHg 61%
    17:00 +13°C° 0 mm 2 mps 767 mmHg 68%
    18:00 +12°C° 0 mm 2 mps 767 mmHg 75%
    19:00 +10°C° 0 mm 2 mps 767 mmHg 78%
    20:00 +9°C° 0 mm 2 mps 767 mmHg 81%
    21:00 +9°C° 0 mm 3 mps 767 mmHg 83%
    22:00 +8°C° 0 mm 3 mps 767 mmHg 85%
    23:00 +8°C° 0 mm 3 mps 767 mmHg 86%

    28 February, Thursday

    Time Temperature Precipitation Wind Pressure Humidity
    00:00 +8°C° 0 mm 3 mps 767 mmHg 88%
    01:00 +8°C° 0 mm 3 mps 766 mmHg 89%
    02:00 +7°C° 0 mm 3 mps 766 mmHg 90%
    03:00 +7°C° 0 mm 3 mps 766 mmHg 91%
    04:00 +7°C° 0 mm 3 mps 766 mmHg 92%
    05:00 +7°C° 0 mm 3 mps 766 mmHg 93%
    06:00 +7°C° 0 mm 3 mps 766 mmHg 93%
    07:00 +8°C° 0 mm 3 mps 766 mmHg 91%
    08:00 +9°C° 0 mm 3 mps 766 mmHg 88%
    09:00 +10°C° 0 mm 3 mps 766 mmHg 85%
    10:00 +11°C° 0 mm 3 mps 766 mmHg 80%
    11:00 +12°C° 0 mm 3 mps 766 mmHg 75%
    12:00 +13°C° 0 mm 3 mps 766 mmHg 70%
    13:00 +12°C° 0 mm 4 mps 766 mmHg 70%
    14:00 +12°C° 0 mm 4 mps 766 mmHg 70%
    15:00 +12°C° 0 mm 4 mps 766 mmHg 70%
    16:00 +11°C° 0 mm 3 mps 766 mmHg 74%
    17:00 +10°C° 0 mm 3 mps 766 mmHg 78%
    18:00 +9°C° 0 mm 2 mps 766 mmHg 83%
    19:00 +9°C° 0 mm 2 mps 766 mmHg 84%
    20:00 +9°C° 0 mm 2 mps 767 mmHg 86%
    21:00 +8°C° 0 mm 2 mps 767 mmHg 88%
    22:00 +8°C° 0 mm 2 mps 767 mmHg 88%
    23:00 +8°C° 0 mm 2 mps 767 mmHg 89%
    Show more